CW3175 Weather Reports


time (UTC)temp
F
wind
direction
speed
knots
gust
knots
rain 1hr
in
rain 24hr
in
rain mn
in
humidity
%
barometer
mb
20160212135719 22 261 3.5 13.9 0.00 0.00 0.00 53 1020.2
20160212134217 22 278 3.5 14.8 0.00 0.00 0.00 52 1020.2
20160212132713 22 291 1.7 7.8 0.00 0.00 0.00 52 1020.0
20160212131209 21 273 3.5 9.6 0.00 0.00 0.00 52 1020.1
20160212125708 21 298 2.6 8.7 0.00 0.00 0.00 52 1020.2
20160212124208 21 265 1.7 10.4 0.00 0.00 0.00 52 1020.3
20160212122659 21 281 2.6 9.6 0.00 0.00 0.00 51 1020.4
20160212121150 21 265 1.7 9.6 0.00 0.00 0.00 50 1020.3
20160212115649 21 281 1.7 9.6 0.00 0.00 0.00 51 1020.4
20160212114140 21 277 2.6 10.4 0.00 0.00 0.00 51 1020.8
20160212112631 21 256 2.6 11.3 0.00 0.00 0.00 51 1020.7
20160212111133 21 284 1.7 7.8 0.00 0.00 0.00 51 1020.7
20160212105631 21 266 0.9 6.1 0.00 0.00 0.00 51 1020.7
20160212104124 21 262 1.7 11.3 0.00 0.00 0.00 51 1020.7
20160212102622 21 238 0.9 5.2 0.00 0.00 0.00 52 1020.7
20160212101115 21 254 0.9 4.3 0.00 0.00 0.00 54 1020.9
20160212095615 21 255 0.9 6.1 0.00 0.00 0.00 54 1021.0
20160212094116 21 242 0.0 3.5 0.00 0.00 0.00 54 1021.0
20160212092608 21 245 0.0 4.3 0.00 0.00 0.00 54 1021.0
20160212091105 21 227 0.9 5.2 0.00 0.00 0.00 54 1021.2
20160212085600 21 259 0.9 5.2 0.00 0.00 0.00 52 1021.2
20160212084056 21 234 0.0 4.3 0.00 0.00 0.00 51 1021.6
20160212082522 21 270 0.9 5.2 0.00 0.00 0.00 51 1021.7
20160212081021 21 271 0.0 4.3 0.00 0.00 0.00 51 1021.9
20160212075512 21 261 0.9 4.3 0.00 0.00 0.00 51 1022.2
20160212074004 21 284 0.0 8.7 0.00 0.00 0.00 51 1022.3
20160212072504 21 279 0.0 5.2 0.00 0.00 0.00 51 1022.3
20160212070946 21 290 0.0 5.2 0.00 0.00 0.00 51 1022.6
20160212065442 21 273 0.9 6.1 0.00 0.00 0.00 51 1022.8
20160212063935 21 240 0.0 5.2 0.00 0.00 0.00 51 1023.2
20160212062434 21 265 0.9 4.3 0.00 0.00 0.00 50 1023.4
20160212060924 21 273 0.9 7.8 0.00 0.00 0.00 50 1023.6
20160212055424 21 279 1.7 7.8 0.00 0.00 0.00 50 1023.9
20160212053922 20 232 0.9 5.2 0.00 0.00 0.00 49 1023.9
20160212052404 20 281 0.9 6.1 0.00 0.00 0.00 49 1024.1
20160212050904 20 260 0.0 4.3 0.00 0.00 0.00 51 1024.2
20160212045352 20 274 0.0 2.6 0.00 0.00 0.00 51 1024.2
20160212043839 20 275 0.9 4.3 0.00 0.00 0.00 50 1024.3
20160212042340 20 277 0.9 6.1 0.00 0.00 0.00 50 1024.5
20160212040814 20 279 0.0 1.7 0.00 0.00 0.00 52 1024.5
20160212035255 19 279 0.0 3.5 0.00 0.00 0.00 51 1024.8
20160212033730 20 279 0.0 2.6 0.00 0.00 0.00 51 1024.9
20160212032219 20 279 0.0 3.5 0.00 0.00 0.00 50 1025.0
20160212030709 20 278 0.9 4.3 0.00 0.00 0.00 49 1025.2
20160212025148 20 265 1.7 7.8 0.00 0.00 0.00 48 1025.3
20160212023649 20 279 0.9 6.1 0.00 0.00 0.00 48 1025.3
20160212022145 20 282 0.0 10.4 0.00 0.00 0.00 46 1025.2
20160212020643 20 283 0.0 3.5 0.00 0.00 0.00 45 1025.2
20160212015141 21 283 0.9 5.2 0.00 0.00 0.00 43 1025.2
20160212013638 21 275 0.0 5.2 0.00 0.00 0.00 41 1025.3
20160212012138 21 273 0.9 7.8 0.00 0.00 0.00 42 1025.3
20160212010625 21 283 0.9 4.3 0.00 0.00 0.00 41 1025.3
20160212005111 21 295 0.0 2.6 0.00 0.00 0.00 40 1025.3
20160212003603 21 295 0.0 3.5 0.00 0.00 0.00 38 1025.4
20160212002047 21 295 0.0 0.0 0.00 0.00 0.00 37 1025.3
20160212000539 21 295 0.0 1.7 0.00 0.00 0.00 35 1025.4
20160211235016 22 295 0.0 3.5 0.00 0.00 0.00 35 1025.3
20160211233512 22 295 0.9 5.2 0.00 0.00 0.00 33 1025.4
20160211232013 22 275 0.0 4.3 0.00 0.00 0.00 32 1025.4
20160211230509 22 274 0.0 4.3 0.00 0.00 0.00 34 1025.5
20160211225009 22 296 0.0 5.2 0.00 0.00 0.00 33 1025.3
20160211223505 23 277 0.9 5.2 0.00 0.00 0.00 33 1025.3
20160211222003 23 294 0.0 7.8 0.00 0.00 0.00 30 1025.2
20160211220456 23 183 0.9 5.2 0.00 0.00 0.00 31 1025.2
20160211214956 24 294 0.9 5.2 0.00 0.00 0.00 32 1025.2
20160211213446 24 0 1.7 5.2 0.00 0.00 0.00 31 1025.5
20160211211945 23 319 0.0 3.5 0.00 0.00 0.00 33 1025.4
20160211210444 24 316 0.9 5.2 0.00 0.00 0.00 32 1025.5
20160211204944 22 339 0.9 7.8 0.00 0.00 0.00 32 1025.6
20160211203442 23 311 0.9 7.0 0.00 0.00 0.00 33 1025.7
20160211201941 23 339 0.9 5.2 0.00 0.00 0.00 34 1025.7
20160211200431 23 311 1.7 7.8 0.00 0.00 0.00 35 1025.7
20160211194930 22 349 0.9 7.8 0.00 0.00 0.00 35 1025.7
20160211193427 22 312 1.7 6.1 0.00 0.00 0.00 35 1025.8
20160211191924 22 327 0.9 4.3 0.00 0.00 0.00 36 1026.0
20160211190407 21 351 1.7 6.1 0.00 0.00 0.00 35 1026.2
20160211184908 21 12 1.7 8.7 0.00 0.00 0.00 35 1026.3
20160211183407 21 346 2.6 7.0 0.00 0.00 0.00 38 1026.5
20160211181906 20 301 1.7 6.1 0.00 0.00 0.00 40 1026.5
20160211180354 20 299 2.6 10.4 0.00 0.00 0.00 40 1026.7
20160211174855 20 261 0.9 6.1 0.00 0.00 0.00 40 1026.8
20160211173352 19 295 1.7 6.1 0.00 0.00 0.00 43 1026.9
20160211171852 18 292 1.7 7.8 0.00 0.00 0.00 42 1026.9
20160211170348 19 321 0.9 7.8 0.00 0.00 0.00 43 1026.8
20160211164833 19 271 0.9 6.1 0.00 0.00 0.00 44 1026.9
20160211163333 17 311 1.7 5.2 0.00 0.00 0.00 48 1027.0
20160211161832 16 10 2.6 8.7 0.00 0.00 0.00 49 1027.0
20160211160334 15 0 2.6 8.7 0.00 0.00 0.00 51 1027.0
20160211154826 16 279 1.7 6.1 0.00 0.00 0.00 53 1026.9
20160211153324 15 332 1.7 8.7 0.00 0.00 0.00 54 1026.9
20160211151822 14 329 2.6 9.6 0.00 0.00 0.00 54 1026.5
20160211150319 14 311 2.6 9.6 0.00 0.00 0.00 54 1026.4
20160211144818 13 351 3.5 9.6 0.00 0.00 0.00 54 1026.4
20160211143316 12 338 3.5 10.4 0.00 0.00 0.00 53 1026.3
20160211141813 12 339 3.5 10.4 0.00 0.00 0.00 53 1026.0